Lefor, ND

12:47 PM MST on February 06, 2016 (GMT -0700)
Dickinson Municipal

Weather History for KDIK - February, 2014

Change the Weather History Date:

Sunday, February 9, 2014

  Actual Average Record
Temperature  
Mean Temperature -4 °F 19 °F  
Max Temperature 6 °F 29 °F 59 °F (1996)
Min Temperature -15 °F 9 °F -38 °F (1939)
Degree Days  
Heating Degree Days 69 46  
Month to date heating degree days 579 419  
Since 1 July heating degree days 5712 5466  
Cooling Degree Days 0 0  
Month to date cooling degree days 0 0  
Year to date cooling degree days 0 0  
Moisture  
Dew Point -11 °F    
Average Humidity 72    
Maximum Humidity 82    
Minimum Humidity 62    
Precipitation  
Precipitation 0.00 in 0.01 in 0.53 in (2009)
Month to date precipitation T 0.07  
Year to date precipitation 0.04 0.37  
Sea Level Pressure  
Sea Level Pressure 30.43 in    
Wind  
Wind Speed 7 mph (NW)    
Max Wind Speed 16 mph    
Max Gust Speed 19 mph    
Visibility 10 miles    
Events      
T = Trace of Precipitation, MM = Missing Value Source: NWS Daily Summary

Daily Weather History Graph

Daily Weather History Graph

Search for Another Location

Airport or City:

Trip Planner

Search our weather history database for the weather conditions in past years. The results will help you decide how hot, cold, wet, or windy it might be!

Date:

Astronomy

Feb. 09, 2014 Rise Set
Actual Time 7:04 AM MST 5:06 PM MST
Civil Twilight 6:32 AM MST 5:38 PM MST
Nautical Twilight 5:57 AM MST 6:14 PM MST
Astronomical Twilight 5:21 AM MST 6:49 PM MST
Moon 12:42 PM MST (2/9) 3:17 AM MST (2/9)
Length of Visible Light 11h 05m
Length of Day
10h 02m
Waxing Gibbous, 77% of the Moon is Illuminated
Feb 9
Waxing Gibbous
Feb 14
Full
Feb 22
Last Quarter
Mar 1
New
Mar 8
First Quarter

Hourly Weather History & Observations

Time (MST) Temp. Windchill Dew Point Humidity Pressure Visibility Wind Dir Wind Speed Gust Speed Precip Events Conditions
12:56 AM -2.9 °F -18.8 °F -8.0 °F 79% 30.40 in 8.0 mi NW 9.2 mph - N/A   Scattered Clouds
1:35 AM -4.0 °F -19.0 °F -9.0 °F 79% 30.22 in 10.0 mi NNW 8.1 mph - N/A   Mostly Cloudy
1:56 AM -6.0 °F -18.6 °F -11.0 °F 79% 30.40 in 10.0 mi NW 5.8 mph - N/A   Mostly Cloudy
2:07 AM -6.0 °F -20.1 °F -11.0 °F 79% 30.21 in 10.0 mi NNW 6.9 mph - N/A   Partly Cloudy
2:56 AM -6.0 °F -22.6 °F -11.0 °F 79% 30.40 in 10.0 mi NNW 9.2 mph - N/A   Clear
3:56 AM -9.9 °F -26.3 °F -15.0 °F 78% 30.42 in 10.0 mi NW 8.1 mph - N/A   Clear
4:56 AM -11.9 °F -25.7 °F -17.0 °F 78% 30.42 in 10.0 mi WNW 5.8 mph - N/A   Clear
5:56 AM -11.9 °F -25.7 °F -17.0 °F 78% 30.44 in 10.0 mi WNW 5.8 mph - N/A   Clear
6:56 AM -14.1 °F -29.9 °F -18.9 °F 79% 30.45 in 10.0 mi West 6.9 mph - N/A   Clear
7:56 AM -9.9 °F -23.4 °F -15.0 °F 78% 30.47 in 10.0 mi West 5.8 mph - N/A   Clear
8:56 AM -5.1 °F -20.4 °F -9.9 °F 80% 30.48 in 10.0 mi WNW 8.1 mph - N/A   Clear
9:56 AM -2.0 °F -16.6 °F -7.1 °F 79% 30.49 in 10.0 mi NW 8.1 mph - N/A   Partly Cloudy
10:56 AM 1.0 °F -16.6 °F -7.1 °F 69% 30.48 in 10.0 mi NW 12.7 mph - N/A   Partly Cloudy
11:56 AM 3.0 °F -14.8 °F -6.0 °F 66% 30.45 in 10.0 mi NW 13.8 mph - N/A   Partly Cloudy
12:56 PM 3.0 °F -14.8 °F -6.0 °F 66% 30.43 in 10.0 mi NNW 13.8 mph - N/A   Clear
1:56 PM 3.9 °F -9.4 °F -6.0 °F 64% 30.43 in 10.0 mi NW 8.1 mph - N/A   Clear
2:56 PM 5.0 °F -8.1 °F -6.0 °F 61% 30.44 in 10.0 mi NW 8.1 mph - N/A   Clear
3:56 PM 5.0 °F -6.9 °F -6.0 °F 61% 30.45 in 10.0 mi NW 6.9 mph - N/A   Clear
4:56 PM 3.0 °F -6.4 °F -8.0 °F 60% 30.46 in 10.0 mi NNW 4.6 mph - N/A   Clear
5:56 PM 1.0 °F -6.7 °F -9.0 °F 63% 30.48 in 10.0 mi North 3.5 mph - N/A   Clear
6:56 PM -4.0 °F - -11.9 °F 69% 30.50 in 10.0 mi Calm Calm - N/A   Clear
7:56 PM -7.1 °F - -13.0 °F 75% 30.49 in 10.0 mi Calm Calm - N/A   Clear
8:56 PM -7.1 °F - -13.0 °F 75% 30.48 in 10.0 mi Calm Calm - N/A   Clear
9:56 PM -9.9 °F -19.2 °F -16.1 °F 74% 30.47 in 10.0 mi SSE 3.5 mph - N/A   Clear
10:56 PM -14.1 °F -28.3 °F -18.9 °F 79% 30.46 in 10.0 mi SE 5.8 mph - N/A   Clear
11:56 PM -15.0 °F -29.3 °F -20.0 °F 78% 30.46 in 10.0 mi South 5.8 mph - N/A   Clear